THA621 RJTT-RJBB

Flight info

Callsign THA621
Flight time N/A
Altitude 32000
Route LAXAS Y56 TOHME Y54 KOHWA Y544 DUBKA
Aircraft A359/H-SDE2E3GHIJ3J4J5LM1ORWXY/LB1D1

Departure

Time N/A
Airport Tokyo Haneda International Airport (RJTT)

Arrival

Time 2026-05-01 07:26
Airport Kansai International Airport (RJBB)
Time Latitude Longitude Altitude Speed Heading
2026-05-01 07:23 34.53739 135.27158 4371 ft 210 kts 99°
2026-05-01 07:23 34.52045 135.29528 3367 ft 182 kts 167°
2026-05-01 07:24 34.50931 135.30348 2612 ft 194 kts 162°
2026-05-01 07:24 34.49720 135.30415 2114 ft 158 kts 215°
2026-05-01 07:24 34.48805 135.29701 1529 ft 154 kts 229°
2026-05-01 07:24 34.48107 135.28799 1171 ft 140 kts 235°
2026-05-01 07:25 34.47622 135.27849 970 ft 127 kts 246°
2026-05-01 07:25 34.47070 135.27019 711 ft 128 kts 234°
2026-05-01 07:25 34.46498 135.26200 452 ft 122 kts 240°
2026-05-01 07:25 34.46012 135.25384 361 ft 120 kts 241°
2026-05-01 07:26 34.45513 135.24601 180 ft 119 kts 239°
2026-05-01 07:26 34.45003 135.23820 51 ft 116 kts 239°
2026-05-01 07:26 34.44533 135.23112 36 ft 82 kts 232°
2026-05-01 07:26 34.44280 135.22735 36 ft 43 kts 228°
2026-05-01 07:27 34.44112 135.22534 40 ft 25 kts 212°
2026-05-01 07:27 34.43972 135.22459 35 ft 23 kts 202°
2026-05-01 07:27 34.43819 135.22405 35 ft 22 kts 173°
2026-05-01 07:27 34.43690 135.22505 35 ft 22 kts 141°
2026-05-01 07:28 34.43581 135.22612 35 ft 20 kts 141°
2026-05-01 07:28 34.43494 135.22664 35 ft 8 kts 177°
2026-05-01 07:28 34.43423 135.22668 35 ft 15 kts 178°
2026-05-01 07:28 34.43337 135.22602 35 ft 2 kts 232°